N2GW KSGU-KBOI

Flight info

Callsign N2GW
Flight time N/A
Altitude 18000
Route JITKA2 JITKA BERYL BROPH SPUUD4
Aircraft S22T/L-SDGRY/S

Departure

Time 2026-04-20 02:29
Airport St George Regional Airport (KSGU)

Arrival

Time N/A
Airport Boise Air Terminal/Gowen Field (KBOI)
Time Latitude Longitude Altitude Speed Heading
2026-04-20 02:14 37.03929 -113.50541 2848 ft 0 kts 204°
2026-04-20 02:21 37.03929 -113.50542 2848 ft 1 kts 204°
2026-04-20 02:22 37.03923 -113.50572 2848 ft 8 kts 339°
2026-04-20 02:22 37.03977 -113.50578 2847 ft 11 kts 292°
2026-04-20 02:22 37.04036 -113.50597 2843 ft 13 kts 21°
2026-04-20 02:22 37.04131 -113.50547 2841 ft 17 kts 22°
2026-04-20 02:23 37.04253 -113.50482 2838 ft 21 kts 22°
2026-04-20 02:23 37.04384 -113.50414 2839 ft 20 kts 23°
2026-04-20 02:23 37.04516 -113.50344 2838 ft 21 kts 24°
2026-04-20 02:23 37.04643 -113.50271 2840 ft 19 kts 41°
2026-04-20 02:24 37.04702 -113.50185 2844 ft 12 kts 21°
2026-04-20 02:24 37.04718 -113.50188 2843 ft 0 kts 329°
2026-04-20 02:26 37.04719 -113.50189 2843 ft 1 kts 328°
2026-04-20 02:27 37.04749 -113.50241 2838 ft 12 kts 297°
2026-04-20 02:27 37.04771 -113.50305 2835 ft 0 kts 292°
2026-04-20 02:28 37.04775 -113.50315 2835 ft 7 kts 293°
2026-04-20 02:28 37.04791 -113.50419 2835 ft 13 kts 221°
2026-04-20 02:28 37.04532 -113.50560 2831 ft 73 kts 202°
2026-04-20 02:28 37.03946 -113.50858 2956 ft 98 kts 204°
2026-04-20 02:29 37.03286 -113.51176 3178 ft 108 kts 203°
2026-04-20 02:29 37.02537 -113.51501 3491 ft 114 kts 200°
2026-04-20 02:29 37.01766 -113.51826 3851 ft 118 kts 198°
2026-04-20 02:29 37.01020 -113.52184 4242 ft 115 kts 198°
2026-04-20 02:30 37.00285 -113.52634 4586 ft 118 kts 200°
2026-04-20 02:30 36.99552 -113.53089 4945 ft 120 kts 210°
2026-04-20 02:30 36.99158 -113.54026 5304 ft 127 kts 258°
2026-04-20 02:30 36.99352 -113.55112 5535 ft 140 kts 307°
2026-04-20 02:31 36.99871 -113.55626 5689 ft 142 kts 341°
2026-04-20 02:31 37.00800 -113.55626 6011 ft 134 kts 26°
2026-04-20 02:31 37.01420 -113.54863 6310 ft 125 kts 69°
2026-04-20 02:31 37.01578 -113.53801 6574 ft 125 kts 87°
2026-04-20 02:32 37.01689 -113.52713 6850 ft 126 kts 86°
2026-04-20 02:32 37.01798 -113.51611 7137 ft 130 kts 85°
2026-04-20 02:32 37.02074 -113.50513 7434 ft 134 kts 75°
2026-04-20 02:32 37.02366 -113.49398 7719 ft 136 kts 76°
2026-04-20 02:33 37.02661 -113.48260 8010 ft 139 kts 77°
2026-04-20 02:33 37.02960 -113.47099 8299 ft 141 kts 76°
2026-04-20 02:33 37.03561 -113.46110 8617 ft 152 kts 32°
2026-04-20 02:33 37.04584 -113.45902 8919 ft 154 kts 343°
2026-04-20 02:34 37.05429 -113.46610 9234 ft 144 kts 296°
2026-04-20 02:34 37.05678 -113.47745 9555 ft 131 kts 257°
2026-04-20 02:34 37.05353 -113.48739 9907 ft 120 kts 224°
2026-04-20 02:34 37.04687 -113.49317 10222 ft 117 kts 204°
2026-04-20 02:35 37.03954 -113.49792 10506 ft 119 kts 206°
2026-04-20 02:35 37.03245 -113.50351 10795 ft 124 kts 224°
2026-04-20 02:35 37.02871 -113.51340 11116 ft 131 kts 251°
2026-04-20 02:35 37.02998 -113.52505 11425 ft 144 kts 286°
2026-04-20 02:36 37.03719 -113.53434 11739 ft 157 kts 322°
2026-04-20 02:36 37.04671 -113.54110 12069 ft 157 kts 322°
2026-04-20 02:36 37.05620 -113.54804 12376 ft 158 kts 322°
2026-04-20 02:36 37.06575 -113.55499 12704 ft 159 kts 323°
2026-04-20 02:37 37.07528 -113.56190 13045 ft 159 kts 323°
2026-04-20 02:37 37.08484 -113.56886 13376 ft 160 kts 323°
2026-04-20 02:37 37.09451 -113.57577 13703 ft 161 kts 327°
2026-04-20 02:37 37.10564 -113.57866 14023 ft 167 kts 358°
2026-04-20 02:38 37.11715 -113.57629 14337 ft 168 kts
2026-04-20 02:38 37.12865 -113.57352 14638 ft 169 kts
2026-04-20 02:38 37.14024 -113.57076 14949 ft 169 kts
2026-04-20 02:38 37.15168 -113.56801 15260 ft 170 kts
2026-04-20 02:39 37.16344 -113.56519 15538 ft 174 kts
2026-04-20 02:39 37.17528 -113.56233 15867 ft 173 kts
2026-04-20 02:39 37.18747 -113.55938 15988 ft 187 kts
2026-04-20 02:39 37.20071 -113.55617 15994 ft 199 kts
2026-04-20 02:40 37.21454 -113.55279 15995 ft 206 kts
2026-04-20 02:40 37.22878 -113.54938 15991 ft 210 kts
2026-04-20 02:40 37.24329 -113.54589 15989 ft 214 kts
2026-04-20 02:40 37.25793 -113.54231 15986 ft 216 kts
2026-04-20 02:41 37.27284 -113.53874 15959 ft 220 kts
2026-04-20 02:41 37.28790 -113.53513 15966 ft 221 kts
2026-04-20 02:41 37.30309 -113.53146 15952 ft 222 kts
2026-04-20 02:41 37.31831 -113.52775 15950 ft 224 kts
2026-04-20 02:42 37.33360 -113.52391 15953 ft 224 kts
2026-04-20 02:42 37.34900 -113.52025 15957 ft 226 kts
2026-04-20 02:42 37.36445 -113.51663 15958 ft 226 kts
2026-04-20 02:42 37.37981 -113.51294 15957 ft 224 kts
2026-04-20 02:43 37.39513 -113.50916 15961 ft 225 kts
2026-04-20 02:43 37.41052 -113.50536 15955 ft 226 kts
2026-04-20 02:43 37.42578 -113.50167 15961 ft 227 kts
2026-04-20 02:43 37.44132 -113.49789 15957 ft 226 kts
2026-04-20 02:44 37.45677 -113.49417 15959 ft 226 kts
2026-04-20 02:44 37.47227 -113.49042 15964 ft 226 kts
2026-04-20 02:44 37.48775 -113.48666 15960 ft 226 kts
2026-04-20 02:44 37.50324 -113.48307 15961 ft 227 kts
2026-04-20 02:45 37.51873 -113.47908 15961 ft 227 kts 10°
2026-04-20 02:45 37.53426 -113.47520 15958 ft 227 kts
2026-04-20 02:45 37.54977 -113.47149 15963 ft 227 kts
2026-04-20 02:45 37.56530 -113.46778 15964 ft 228 kts
2026-04-20 02:46 37.58088 -113.46398 15954 ft 228 kts
2026-04-20 02:46 37.59619 -113.46025 15942 ft 225 kts
2026-04-20 02:46 37.61153 -113.45660 15960 ft 225 kts
2026-04-20 02:46 37.62686 -113.45275 15963 ft 225 kts
2026-04-20 02:47 37.64224 -113.44896 15962 ft 225 kts
2026-04-20 02:47 37.65761 -113.44523 15964 ft 225 kts
2026-04-20 02:47 37.67298 -113.44148 15963 ft 225 kts
2026-04-20 02:47 37.68837 -113.43773 16008 ft 226 kts
2026-04-20 02:48 37.70383 -113.43395 15997 ft 226 kts
2026-04-20 02:48 37.71919 -113.43116 15995 ft 223 kts
2026-04-20 02:48 37.73432 -113.42668 15988 ft 224 kts 12°
2026-04-20 02:48 37.74946 -113.42238 15995 ft 223 kts
2026-04-20 02:49 37.76471 -113.41877 15997 ft 223 kts
2026-04-20 02:49 37.77993 -113.41523 15996 ft 223 kts
2026-04-20 02:49 37.79515 -113.41154 15993 ft 222 kts
2026-04-20 02:49 37.81033 -113.40783 15991 ft 222 kts
2026-04-20 02:50 37.82554 -113.40411 15988 ft 222 kts
2026-04-20 02:50 37.84075 -113.40038 15985 ft 222 kts
2026-04-20 02:50 37.85598 -113.39665 15986 ft 223 kts
2026-04-20 02:50 37.87122 -113.39291 15982 ft 223 kts
2026-04-20 02:51 37.88642 -113.38918 15978 ft 223 kts
2026-04-20 02:51 37.90174 -113.38699 15974 ft 220 kts 353°
2026-04-20 02:51 37.91666 -113.39063 15971 ft 218 kts 342°
2026-04-20 02:51 37.93147 -113.39494 15965 ft 218 kts 343°
2026-04-20 02:52 37.94630 -113.39913 15955 ft 218 kts 343°
2026-04-20 02:52 37.96087 -113.40331 15948 ft 218 kts 343°